Dewpoint
74 75 75 75 74 74 73 73 72 71 69 69 69 69 68 68 68 68 69 68 68 68 69 69 69 69 68 68 67 68 69 68 69 69 69 68 68 68 67 68 68 66 67 66 67 68 68 67 67 67 68 67 66 65 66 67 67 65 64 64 64 65 64 61 59 59 60 60 59 58 59 60 60 61 61 61 62 62 63 64 64 63 63 63 62
74 75 75 74 73 73 72 71 71 70 69 68 68 68 68 68 69 69 68 69 68 67 68 68 69 69 68 68 69 69 69 69 67 68 68 67 67 67 67 68 68 67 67 67 68 68 68 67 67 67 68 68 66 66 66 66 66 65 64 64 62 61 64 62 60 59 59 61 59 61 60 60 60 62 61 61 61 62 62 63 63 63 63 63 61
74 75 74 73 73 72 71 70 70 69 68 68 66 66 66 68 69 68 67 66 68 68 68 68 69 69 68 68 69 69 69 69 68 68 67 67 67 65 65 66 66 66 66 67 66 66 66 66 64 64 66 66 66 66 66 67 66 66 64 63 63 62 62 63 61 59 58 58 60 60 60 59 60 61 62 62 62 62 61 61 62 62 63 63 62
73 74 73 73 72 72 71 69 68 67 66 67 65 64 64 67 67 67 67 66 66 67 68 68 68 69 68 68 69 68 68 68 68 68 68 68 67 67 67 68 67 67 66 66 65 65 64 64 64 63 65 65 65 65 65 66 66 65 65 65 64 64 63 62 62 60 59 58 60 60 61 60 59 60 62 62 61 61 60 60 61 62 62 62 62
73 74 73 72 71 72 70 68 68 67 67 65 65 63 63 64 66 65 66 65 66 67 67 67 68 68 67 68 68 68 68 67 68 68 68 68 68 67 67 67 67 66 66 67 66 66 65 65 64 64 65 65 64 64 65 65 65 64 63 63 63 63 62 62 62 62 60 59 59 60 61 60 59 60 61 60 60 60 61 60 61 61 62 62 61
73 73 72 71 71 71 70 68 67 67 67 65 64 64 64 65 65 65 66 64 65 65 66 66 67 67 67 68 68 68 68 68 68 68 67 67 67 67 66 66 66 67 67 67 67 67 67 66 65 65 65 65 65 65 65 65 65 64 64 63 63 63 63 63 63 62 60 59 59 58 59 58 58 58 60 60 57 57 58 59 60 60 60 60 60
74 73 72 71 71 70 70 68 67 67 67 67 66 66 64 64 64 64 64 64 63 64 64 66 66 66 67 67 67 67 67 67 68 68 68 67 67 67 66 67 67 67 67 66 65 66 66 66 66 66 66 66 65 64 64 65 65 64 64 63 62 62 62 62 63 63 63 61 59 58 57 58 58 56 57 59 59 58 56 56 55 57 57 57 57
74 74 72 71 71 70 69 68 69 68 68 68 68 68 67 66 66 65 65 64 63 64 64 65 65 65 66 67 67 67 67 67 67 67 67 67 67 67 67 68 67 67 67 66 66 65 65 65 64 65 66 66 66 66 66 65 65 64 63 63 63 62 62 63 63 62 62 61 59 56 57 57 57 57 57 58 56 56 57 56 55 56 56 58 58
74 73 72 71 71 71 70 68 69 69 69 68 67 67 66 67 66 66 66 65 65 64 64 65 65 66 67 67 66 66 66 66 66 67 67 67 68 67 67 67 66 66 66 65 66 67 66 66 65 65 67 67 66 65 64 64 65 64 64 64 64 65 64 63 62 62 61 61 59 58 57 56 56 56 56 55 55 55 57 57 57 57 57 57 58
74 73 71 71 71 70 69 69 68 69 68 67 67 68 67 66 65 65 65 66 65 65 65 66 64 65 65 66 66 66 66 66 65 63 64 67 68 67 67 67 66 66 66 66 65 66 66 65 66 66 65 64 63 62 61 60 59 62 64 64 63 63 63 63 62 61 61 60 59 58 56 55 55 56 55 56 57 57 56 57 56 56 57 57 56
73 72 71 71 71 70 69 68 68 68 69 68 67 67 66 65 65 65 65 65 66 66 67 65 63 64 64 64 65 65 65 66 63 61 61 63 66 66 66 66 67 66 66 66 65 65 65 67 67 66 66 64 64 62 61 60 60 59 59 59 60 64 62 63 62 60 60 59 59 59 59 57 56 56 56 55 56 56 56 57 56 56 56 55 54
72 72 72 72 71 69 68 68 67 67 68 66 65 64 65 66 65 65 65 66 66 67 66 65 65 64 63 63 63 64 65 63 60 60 61 61 63 66 66 66 66 66 66 66 66 65 65 65 65 66 66 65 65 64 65 63 61 60 60 59 59 58 58 62 62 61 60 59 59 60 60 58 57 58 55 55 57 58 59 59 58 57 57 55 54
72 72 72 71 70 69 68 68 67 67 67 66 64 64 64 64 64 65 65 66 67 67 67 66 65 65 64 64 63 63 64 62 60 59 60 60 61 63 66 67 66 66 66 67 66 66 66 66 65 66 66 65 63 63 64 64 63 61 60 60 59 58 58 57 57 61 61 60 60 60 60 61 61 60 57 59 60 58 59 56 57 57 56 55 54
72 72 71 71 69 68 68 68 67 67 66 66 65 66 64 63 62 63 65 66 66 66 65 66 65 65 64 65 65 64 64 62 59 58 58 59 60 62 65 66 67 66 66 66 66 66 66 66 65 65 65 65 65 64 63 63 63 62 63 63 61 61 60 58 57 56 58 60 59 59 61 61 60 60 61 60 59 58 58 57 58 57 56 56 57
72 71 70 70 69 68 67 67 67 66 66 65 66 65 64 62 62 63 64 65 66 66 65 64 64 64 64 64 64 64 64 60 58 57 57 57 58 61 65 67 66 66 67 67 67 66 66 66 65 65 65 64 63 64 63 62 62 61 60 59 60 60 60 59 59 60 61 60 60 60 60 61 61 61 61 60 59 58 58 57 57 56 56 57 56
71 71 70 69 68 68 67 67 67 65 65 64 62 63 64 62 62 63 64 65 66 65 65 64 64 64 64 64 64 64 63 59 58 57 57 57 59 64 66 67 66 66 66 65 66 66 66 65 65 64 64 63 63 60 61 62 61 59 59 60 60 60 59 60 59 59 61 60 60 59 58 59 55 60 60 57 57 57 56 56 56 56 56 54 53
71 71 69 69 68 67 67 67 66 64 63 62 62 61 62 63 64 65 64 65 65 65 65 64 66 65 65 66 65 65 65 61 57 56 56 56 58 65 67 66 66 66 65 65 65 65 65 64 64 63 63 63 61 58 58 58 60 60 60 60 59 58 57 58 59 57 56 54 53 53 54 54 54 53 52 52 56 56 56 55 54 53 53 52 51
70 70 69 68 68 67 66 66 65 64 63 62 61 61 63 63 63 65 65 65 64 64 64 65 66 66 65 65 63 65 65 63 56 55 55 56 60 66 66 65 65 65 64 64 65 65 64 62 62 63 61 62 58 56 56 57 59 60 59 58 58 57 56 56 57 59 55 54 54 54 53 53 53 53 53 52 52 53 57 54 53 52 53 53 51
69 69 69 68 68 67 65 66 66 64 63 63 62 63 63 63 65 65 64 64 64 64 63 63 64 65 64 64 64 64 64 62 55 54 54 55 60 66 65 63 63 63 62 63 64 63 63 62 62 62 62 61 53 54 54 56 59 59 59 57 56 56 57 58 57 56 57 56 57 57 58 56 59 60 59 54 54 55 57 55 54 54 53 51 50
70 69 69 68 67 66 65 66 65 64 63 62 62 62 62 63 64 64 64 64 64 63 63 62 64 65 65 65 65 64 65 67 65 54 53 53 56 65 64 63 62 62 63 63 62 63 62 62 61 58 56 55 52 52 52 52 57 59 59 58 58 58 58 57 57 55 57 56 56 56 55 56 57 57 56 55 54 56 56 56 55 55 54 53 52
69 69 69 68 67 66 65 65 64 63 63 63 63 62 63 63 63 64 64 64 64 65 66 66 65 66 66 66 66 67 66 66 65 53 52 52 54 58 63 62 63 63 63 62 61 61 62 61 59 56 53 52 51 50 49 50 53 56 58 58 58 57 53 55 56 55 56 56 55 55 54 55 56 54 52 53 50 49 50 51 50 52 52 52 52
69 69 68 67 66 66 65 65 64 64 64 64 64 64 64 64 65 65 65 66 66 66 67 67 67 66 66 65 65 66 65 64 67 57 53 51 52 54 61 63 63 63 63 62 62 61 61 60 60 56 53 52 51 48 47 48 50 53 57 51 51 51 55 55 56 55 54 53 52 52 53 53 51 50 49 48 47 49 47 47 47 48 49 49 52
69 68 67 67 66 66 65 65 64 63 63 64 65 65 65 65 65 66 67 67 66 66 67 67 66 64 64 64 64 64 65 65 62 64 52 50 50 51 55 59 57 63 62 61 61 60 60 60 59 55 50 47 45 45 46 46 47 52 49 49 50 50 52 55 55 54 54 53 53 53 53 52 50 48 48 48 48 50 49 49 49 50 52 52 54
68 67 67 66 66 65 65 64 64 64 65 65 65 65 66 66 66 67 67 66 66 66 67 65 64 63 62 63 63 64 64 64 61 61 58 51 49 49 50 53 54 60 61 61 59 59 59 60 57 46 44 42 43 45 46 46 53 48 47 49 49 50 54 55 54 54 53 52 53 52 51 49 50 49 48 48 47 51 52 52 53 52 52 53 54
67 67 67 66 66 66 66 65 65 65 66 66 65 65 65 66 67 67 67 66 66 65 64 64 63 64 63 62 63 63 63 63 61 61 58 53 50 49 50 51 51 52 60 60 60 59 52 46 44 45 46 46 46 47 47 48 49 48 48 50 52 53 54 54 53 52 52 52 50 49 49 49 49 50 51 51 52 53 53 52 51 52 53 53 54
67 67 66 66 66 66 65 65 66 66 66 66 66 66 66 66 65 66 66 65 66 65 64 65 64 63 63 63 63 62 63 62 61 61 58 56 53 50 50 51 51 50 53 57 52 51 49 48 48 50 50 50 56 58 57 56 51 51 51 51 52 52 51 52 52 52 51 49 48 47 46 46 46 48 51 52 52 50 50 51 50 50 51 52 52
66 66 66 66 67 66 66 65 65 65 65 65 66 65 64 65 65 66 66 66 65 66 66 63 62 62 61 63 63 62 62 61 61 60 60 59 57 55 53 53 52 51 54 58 55 55 56 55 54 52 51 51 53 53 53 49 52 51 51 50 50 49 51 52 51 50 50 48 47 46 46 46 48 50 50 49 49 50 50 51 49 49 50 51 52
66 66 65 66 66 66 66 66 65 64 64 64 63 63 64 65 65 65 65 66 66 65 64 63 62 61 61 62 62 62 61 60 59 59 58 58 58 58 57 56 56 58 56 56 57 54 53 52 51 55 54 53 52 53 52 54 52 50 49 48 47 48 46 45 46 50 50 48 47 49 49 49 47 46 46 46 46 47 50 50 49 49 50 50 50
66 66 66 66 66 66 65 65 64 64 64 62 56 53 55 64 64 64 61 64 67 64 63 62 62 61 61 62 61 60 59 59 59 55 60 52 58 56 57 56 56 56 51 47 54 55 55 53 53 50 51 51 51 50 48 48 48 46 47 46 46 45 45 43 44 47 48 48 47 48 46 45 45 45 45 44 46 47 49 49 50 48 49 50 50
64 64 64 64 64 64 65 64 64 64 62 60 55 52 47 42 45 57 58 51 49 47 52 62 61 60 59 61 60 60 59 60 47 45 42 42 42 42 41 42 43 47 46 46 52 53 53 51 50 49 49 49 48 48 45 45 46 45 43 42 41 41 42 42 43 44 46 47 47 45 44 44 44 44 44 43 45 46 47 48 49 49 48 48 49
64 62 63 62 63 64 64 64 65 62 59 59 59 56 54 50 40 40 44 46 44 42 45 47 52 55 59 57 52 45 46 44 42 40 40 39 39 39 39 39 39 40 42 51 52 53 51 51 49 50 50 48 47 45 45 44 44 41 38 38 40 42 41 40 42 43 44 44 44 43 43 42 44 43 42 42 44 45 46 47 47 48 48 47 49
63 63 62 63 65 66 65 65 63 61 61 61 61 60 57 55 52 42 39 41 41 41 41 42 44 46 49 52 51 50 44 40 40 39 39 39 39 38 38 38 38 38 41 41 54 51 51 50 49 48 47 46 46 46 42 40 41 39 38 36 35 37 37 39 43 43 43 42 41 41 42 42 42 42 41 41 44 44 44 45 46 47 48 47 49
63 63 63 65 65 65 64 63 62 62 62 61 59 58 58 57 55 53 48 40 39 39 40 40 40 41 42 43 45 47 45 42 40 40 39 38 38 38 38 37 38 38 41 50 51 49 50 49 48 48 46 45 45 43 42 37 37 37 37 34 31 33 39 44 47 45 43 41 40 39 40 40 40 40 40 40 41 42 43 44 45 46 47 46 47
64 64 63 63 63 62 62 63 63 63 61 60 60 59 59 58 55 54 53 51 50 45 41 39 39 39 39 39 40 40 39 39 39 39 38 38 38 38 40 43 38 38 42 52 48 49 49 48 47 46 45 44 42 40 39 39 39 37 35 31 32 36 42 45 45 41 39 38 37 37 39 38 38 39 39 39 40 41 42 42 43 44 46 46 46
65 64 63 63 62 63 63 63 62 61 60 60 60 60 60 59 57 55 55 54 54 53 51 49 44 40 45 41 37 38 38 39 39 39 39 39 40 40 42 50 50 48 49 50 51 49 48 47 47 46 45 43 40 38 38 38 36 34 32 32 35 36 39 41 39 39 39 37 37 36 37 39 39 38 38 38 39 40 40 41 41 42 44 45 45
64 63 63 64 63 63 63 63 62 61 60 60 60 60 60 58 57 57 56 57 55 54 52 51 50 44 40 37 37 39 39 39 39 39 39 39 40 41 52 51 49 49 49 49 48 48 48 47 46 45 43 41 41 39 38 35 33 30 33 35 37 37 39 39 40 41 41 39 36 37 38 38 37 37 37 37 39 38 38 40 40 42 43 44 45
63 63 64 64 63 63 63 62 62 61 61 60 60 60 59 59 58 59 58 58 56 54 52 51 51 50 49 48 44 39 39 40 40 39 40 39 38 48 49 49 48 49 47 47 47 47 46 45 44 45 42 40 38 37 36 34 33 34 37 39 41 40 39 40 40 42 41 37 37 37 38 37 37 38 36 38 38 37 38 40 40 41 42 43 44
64 64 64 64 64 63 62 61 60 59 61 62 62 62 59 59 59 58 57 56 55 53 52 52 51 50 49 51 50 50 47 40 39 39 39 40 47 50 50 49 49 48 48 48 47 46 45 45 44 42 40 38 38 37 33 32 29 32 36 40 42 41 38 41 44 45 44 39 36 39 36 37 36 36 37 38 38 37 37 38 39 40 42 44 43
64 60 60 61 61 63 63 62 61 60 61 60 60 60 59 58 57 56 56 55 54 53 52 52 52 51 51 51 51 52 49 49 49 50 50 49 49 49 48 48 47 47 47 46 45 45 44 43 42 41 38 38 36 36 34 29 29 31 36 37 38 37 38 37 39 41 38 37 36 36 36 35 36 36 38 37 36 36 37 38 39 39 41 41 42
64 63 61 60 62 61 61 61 60 60 60 60 59 59 59 57 57 57 55 54 53 53 52 52 52 53 54 53 52 51 50 50 50 51 49 49 49 49 49 47 47 47 47 46 45 44 43 42 41 39 39 39 37 34 31 30 28 31 35 36 36 36 37 38 37 37 36 36 36 36 35 37 37 36 37 36 36 37 38 38 39 40 41 42 42
62 62 62 60 61 62 62 61 62 61 60 60 59 59 58 57 57 56 55 54 54 53 53 53 54 54 54 52 48 48 51 51 50 49 49 49 48 48 47 47 46 46 46 45 45 44 42 41 41 39 39 37 35 34 31 26 27 29 32 34 34 35 36 37 38 37 37 36 35 35 35 37 35 36 35 37 39 37 37 38 37 37 40 41 42
61 61 61 61 62 62 62 61 61 60 61 60 60 60 58 57 57 56 56 56 54 54 54 54 54 54 50 46 44 44 51 52 50 49 49 48 49 48 47 47 46 47 46 44 44 43 42 43 40 38 36 36 34 31 28 26 25 26 29 32 33 35 33 33 35 38 37 35 35 34 35 36 36 36 36 38 37 37 38 37 37 38 38 41 42
62 61 62 62 62 62 61 61 61 61 61 60 60 58 58 58 57 57 56 56 56 54 54 54 54 53 51 46 46 44 51 52 50 49 48 48 48 47 47 45 45 45 45 44 43 43 43 42 39 37 36 34 34 32 27 25 27 24 24 30 33 34 34 33 34 35 35 35 34 35 36 36 34 33 35 38 37 37 37 37 37 38 39 42 43
62 62 63 64 63 62 62 62 61 61 62 60 60 59 59 59 58 58 57 57 56 56 56 55 53 53 52 48 46 48 50 52 51 48 49 49 47 46 45 45 44 43 44 43 43 43 42 41 39 37 37 33 33 33 27 24 22 22 25 25 28 32 33 34 35 35 35 33 33 34 34 35 35 34 36 37 37 37 37 37 37 37 40 41 42
63 62 61 61 62 63 62 62 61 60 60 60 59 59 59 58 57 57 56 56 56 56 55 53 53 53 52 51 50 51 51 52 51 50 49 47 47 46 45 44 44 45 43 43 43 44 42 41 39 38 36 34 33 32 28 28 26 26 22 25 26 28 30 34 35 36 35 37 34 34 33 33 34 33 34 36 37 37 35 36 37 40 40 40 40
61 62 62 61 60 60 60 60 60 60 60 59 58 58 58 57 57 57 56 56 56 55 55 54 54 53 52 52 51 51 51 52 51 49 48 47 46 46 46 44 43 43 42 42 43 43 41 41 38 37 36 35 34 32 31 31 31 31 29 28 26 24 28 32 35 36 37 37 35 34 35 34 34 34 36 37 36 35 36 37 38 38 39 39 39
61 61 60 60 59 60 60 59 59 59 59 58 58 57 57 57 56 56 56 56 55 55 54 54 54 53 53 52 51 52 52 51 50 48 48 48 48 47 45 45 43 43 42 43 43 42 42 41 39 38 37 36 35 36 33 32 34 32 31 30 29 28 26 30 34 38 37 37 37 35 34 35 34 33 35 36 36 35 37 36 36 39 38 37 37
58 59 58 59 59 60 59 58 58 57 57 57 58 57 57 56 56 55 55 55 55 55 55 53 53 52 52 52 52 52 52 51 50 49 48 48 47 46 45 46 43 42 43 43 43 41 41 40 39 38 38 37 36 35 35 34 33 33 31 31 30 29 35 33 33 37 39 38 37 36 36 35 34 34 35 37 37 36 37 35 36 35 37 35 36
59 59 59 59 59 58 59 59 58 57 56 55 55 55 56 55 54 54 54 54 54 54 53 53 53 52 52 52 52 51 51 51 50 49 47 47 47 47 46 45 44 43 43 42 42 42 42 41 40 39 37 38 36 35 35 35 33 32 33 32 32 34 33 33 32 34 36 37 37 36 36 36 34 36 36 38 37 37 36 36 36 36 36 35 34
57 57 57 57 58 57 57 57 56 56 55 54 54 54 54 55 55 54 54 53 53 53 53 53 52 52 51 51 51 51 51 50 50 49 48 48 48 46 45 46 45 44 44 43 43 42 42 42 41 39 38 38 36 36 35 34 35 33 33 33 32 30 31 32 33 33 35 37 37 34 35 35 35 35 35 37 37 36 34 35 36 36 35 34 34
57 57 56 55 55 56 56 56 55 55 55 54 53 54 54 53 53 53 53 53 53 53 53 53 51 51 51 51 51 51 51 51 49 49 48 48 48 46 45 45 45 45 45 44 44 43 42 41 39 39 38 38 36 35 35 36 35 34 31 29 29 31 32 33 34 33 33 34 37 35 33 34 35 35 35 36 35 35 35 36 35 35 35 32 33